Preview of NWS' New Version of Forecast
This preview is not operational and should not be used for support decisions.

Regional Weather Roundup (RWR)

Issued by San Diego, CA (SGX)

                            
000
ASUS46 KSGX 220411
RWRSGX

SAN DIEGO HOURLY WEATHER ROUNDUP
NATIONAL WEATHER SERVICE SAN DIEGO CA
800 PM PST MON JAN 21 2019

NOTE: "FAIR" INDICATES FEW OR NO CLOUDS BELOW 12,000 FEET WITH NO 
SIGNIFICANT WEATHER AND/OR OBSTRUCTIONS TO VISIBILITY.

CAZ042-043-060-061-PZZ750-775-220500-

GREATER SAN DIEGO AREA
  
CITY           SKY/WX    TMP DP  RH WIND       PRES   REMARKS
SAN DIEGO AP   PTCLDY    59  43  55 NW9       30.11R                  
NATIONAL CITY    N/A     56  46  68 CALM      30.10R                  
CHULA VISTA      N/A     54  46  75 CALM      30.02R                  
IMPERIAL BEACH CLEAR     57  44  62 N8        30.11R                  
BROWN FIELD    CLEAR     51  43  74 CALM      30.10R                  
MIRAMAR MCAS   CLEAR     57  43  59 N3        30.09R                  
MONTGOMERY FLD PTCLDY    53  43  68 E5        30.10R                  
GILLESPIE FLD  PTCLDY    54  43  66 VRB6      30.10R                  

$$

NORTH SAN DIEGO COUNTY
  
CITY           SKY/WX    TMP DP  RH WIND       PRES   REMARKS
CAMP PENDLETON CLEAR     48  44  86 E3        30.07R                  
OCEANSIDE AP   CLEAR     50  46  86 CALM      30.06R                  
OCEANSIDE HBR    N/A     59  49  70 W3        30.09R                  
VISTA            N/A     50  44  80 CALM      30.05R                  
CARLSBAD       PTCLDY    58  47  66 W7        30.07R                  
DEL MAR          N/A     56  48  73 NW2       30.10R                  
LA JOLLA SCRIP   N/A     58  49  72 W12       30.08R                  
FALLBROOK      FAIR      48  39  71 CALM      30.07R                  
ESCONDIDO        N/A     53  43  70 CALM      30.10R                  
SAN MARCOS       N/A     52  44  75 CALM      30.12R                  
POWAY            N/A     49  43  80 CALM      30.12R                  

$$

EAST SAN DIEGO COUNTY
  
CITY           SKY/WX    TMP DP  RH WIND       PRES   REMARKS
RAMONA         MOCLDY    46  40  79 E3        30.08R                  
SANTEE LAKES     N/A     49  43  79 CALM      30.09R                  
LA MESA          N/A     51  43  74 CALM      30.05R                  
JAMUL            N/A     47  43  85 CALM      30.11R                  
CAMPO            N/A     44  36  73 W9        30.02R                  

$$

ORANGE COUNTY AND THE LOS ANGELES BASIN
  
CITY           SKY/WX    TMP DP  RH WIND       PRES   REMARKS
JOHN WAYNE AP  CLEAR     57  32  38 NW5       30.06R                  
LAGUNA BEACH     N/A    N/A N/A N/A CALM      30.02R                  
LAKE FOREST FR   N/A     49  32  52 N1        29.96R                  
HUNTINGTON BCH   N/A     56  37  49 NW5       30.06R                  
LOS ALAMITOS   FAIR      54  34  46 NW10      30.06R                  
FULLERTON      CLEAR     56  31  38 W8        30.04R                  
LONG BEACH     CLEAR     57  33  40 NW14      30.07R                  
L.A. AP        CLEAR     56  32  40 N16G26    30.10R                  
L.A. DOWNTOWN  CLEAR     55  32  41 CALM      30.08R                  

$$

THE INLAND EMPIRE
  
CITY           SKY/WX    TMP DP  RH WIND       PRES   REMARKS
CORONA           N/A    N/A N/A N/A CALM      30.06R                  
CHINO          CLEAR     50  34  54 CALM      30.06R                  
ONTARIO        PTCLDY    51  31  46 CALM      30.04R                  
SAN BERNARDINO CLEAR     54  28  37 E9        30.05                   
RIVERSIDE AP   CLEAR     50  32  50 E3        30.06R                  
MORENO VALLEY    N/A     49  37  63 CALM      28.17R                  
MARCH ARB      CLEAR     40  33  77 CALM      30.05R                  
HORSETHIEF CYN   N/A     46  30  52 W5        30.05R                  
PERRIS           N/A     49  37  61 NE1       30.03R                  
HEMET EAST       N/A     44  27  51 CALM      30.01R                  
FRENCH VALLEY  FAIR      46  37  71 SE3       30.06R                  
TEMECULA         N/A     50  44  80 W2        30.04R                  

$$

SAN BERNARDINO AND RIVERSIDE COUNTY MOUNTAINS
  
CITY           SKY/WX    TMP DP  RH WIND       PRES   REMARKS
BIG BEAR AP    CLEAR     25  21  86 W3        30.02R                  

$$

SOUTHERN DESERT INCLUDING THE COACHELLA VALLEY
  
CITY           SKY/WX    TMP DP  RH WIND       PRES   REMARKS
PALM SPRINGS   LGT RAIN  60  25  26 NW12G22   29.97R                  
THERMAL        CLEAR     62  28  27 NW13      29.95R                  
BORREGO AP     FAIR      57  28  33 NW9G20    29.99R                  
BLYTHE         CLEAR     55  31  39 N5        29.94R                  
IMPERIAL AP    CLEAR     55  32  41 W16       29.95R                  
EL CENTRO NAS  CLEAR     59  29  31 W18       29.98R                  
YUMA AZ        CLEAR     57  33  40 W12       29.94R                  
MEXICALI       CLEAR     59  28  31 W14       29.96R                  

$$

UPPER DESERT
  
CITY           SKY/WX    TMP DP  RH WIND       PRES   REMARKS
HESPERIA         N/A     39  30  69 E2        30.16R                  
APPLE VALLEY     N/A     41  30  65 E3        30.15R                  
PALMDALE       CLEAR     43  28  55 NW13      30.11R                  
LANCASTER      CLEAR     43  29  57 NW12      30.11R                  
EDWARDS AFB    CLEAR     43  30  61 S8        30.07R                  
DAGGETT        CLEAR     47  31  53 W24G35    30.06R                  
29 PALMS N     CLEAR     47  29  49 NW25G37   30.08R                  
NEEDLES        MOCLDY    56  32  40 NW7       29.94R                  

$$

REGIONAL REPORTS
  
CITY           SKY/WX    TMP DP  RH WIND       PRES   REMARKS
SANTA BARBARA  CLEAR     53  39  59 W9        30.14R                  
SANDBERG       PTCLDY    34  30  85 N36G49    30.07R WCI  19          
LAS VEGAS NV   MOCLDY    51  25  36 NW20G33   29.97R                  
PHOENIX AZ     CLEAR     51  27  39 SW6       29.86R                  
TIJUANA        PTCLDY    54  45  71 CALM      30.12R                  

$$

OFFSHORE ISLANDS
  
CITY           SKY/WX    TMP DP  RH WIND       PRES   REMARKS
CATALINA ARPT  CLEAR     51  40  65 NW22G37   30.09R                  
SAN CLEMENTE I CLEAR     55  51  86 NW35G43   30.11S                  
SAN NICOLAS IS MOCLDY    55  32  41 NW28G38   30.14R                  

$$

MARINE AND OFFSHORE BUOY REPORTS
  
STATION/POSITION SKY/WX   TEMP    WIND        PRES    VSBY  SWELL
                          AIR SEA DIR/SP/G                  HT/PER/DIR
                          (F)     (DEG/KT/KT) (MB)    (MI)  (FT/S/D)
TANNER BANKS               57 59              1020.1F
S CLEMENTE BASIN           59 61  310/ 23/ 31 1018.5R
SAN NICOLAS IS.               58                N/A           5/300/11
SO. S. ROSA ISLA           56 57  310/ 27/ 35 1020.8          7/290/10
W. S. BARBARA CH                              1021.7
M. S. BARBARA CH           58 59  310/ 19/ 25 1021.2R         5/260/11
S. MONICA BASIN            60 60  320/ 17/ 23 1019.3R         3/260/11
S PEDRO CHANNEL               60                N/A           2/270/11
OCEANSIDE OFFSHR              61                N/A           2/260/11
TORREY PINES OTR              61                N/A           2/270/11
SAN DIEGO BAY                                 1018.6R
IMPERIAL BEACH                59                N/A           3/270/11
POINT LOMA SOUTH              61                N/A           3/280/11

$$